TimeCDT,TemperatureF,Dew PointF,Humidity,Sea Level PressureIn,VisibilityMPH,Wind Direction,Wind SpeedMPH,Gust SpeedMPH,PrecipitationIn,Events,Conditions,WindDirDegrees,DateUTC
12:15 AM,36.5,29.3,75,30.27,10.0,West,5.8,-,N/A,,Clear,270,2013-10-27 05:15:00
12:35 AM,36.0,29.1,76,30.27,10.0,WSW,6.9,-,N/A,,Clear,250,2013-10-27 05:35:00
12:55 AM,36.0,28.8,75,30.27,10.0,West,6.9,-,N/A,,Clear,260,2013-10-27 05:55:00
1:15 AM,34.0,28.2,79,30.26,10.0,WSW,8.1,-,N/A,,Clear,250,2013-10-27 06:15:00
1:35 AM,34.2,28.0,78,30.24,10.0,West,5.8,-,N/A,,Clear,270,2013-10-27 06:35:00
1:55 AM,32.9,27.1,79,30.24,10.0,West,8.1,-,N/A,,Clear,270,2013-10-27 06:55:00
2:15 AM,32.4,27.5,82,30.24,10.0,West,5.8,-,N/A,,Clear,270,2013-10-27 07:15:00
2:35 AM,32.0,26.6,80,30.24,10.0,West,8.1,-,N/A,,Clear,270,2013-10-27 07:35:00
2:55 AM,32.0,25.7,78,30.24,10.0,West,5.8,-,N/A,,Clear,270,2013-10-27 07:55:00
3:15 AM,32.0,26.6,80,30.23,10.0,West,5.8,-,N/A,,Clear,270,2013-10-27 08:15:00
3:35 AM,31.1,25.7,80,30.23,10.0,West,5.8,-,N/A,,Clear,260,2013-10-27 08:35:00
3:55 AM,30.9,25.5,80,30.22,10.0,WSW,6.9,-,N/A,,Clear,250,2013-10-27 08:55:00
4:15 AM,31.1,25.5,80,30.22,10.0,WSW,8.1,-,N/A,,Clear,250,2013-10-27 09:15:00
4:35 AM,30.4,25.3,82,30.21,10.0,WSW,8.1,-,N/A,,Clear,250,2013-10-27 09:35:00
4:55 AM,31.8,26.4,80,30.20,10.0,West,6.9,-,N/A,,Clear,270,2013-10-27 09:55:00
5:15 AM,31.6,26.4,81,30.21,10.0,West,5.8,-,N/A,,Clear,270,2013-10-27 10:15:00
5:35 AM,31.5,26.1,80,30.21,10.0,Calm,Calm,-,N/A,,Clear,0,2013-10-27 10:35:00
5:55 AM,32.5,26.4,78,30.21,10.0,Calm,Calm,-,N/A,,Clear,0,2013-10-27 10:55:00
6:15 AM,31.5,25.0,77,30.20,10.0,Calm,Calm,-,N/A,,Clear,0,2013-10-27 11:15:00
6:35 AM,31.8,26.2,80,30.20,10.0,SW,5.8,-,N/A,,Clear,220,2013-10-27 11:35:00
6:55 AM,31.5,25.5,79,30.19,10.0,WSW,5.8,-,N/A,,Clear,250,2013-10-27 11:55:00
7:15 AM,30.0,25.0,82,30.19,10.0,WSW,10.4,-,N/A,,Clear,250,2013-10-27 12:15:00
7:35 AM,32.0,26.4,80,30.19,10.0,WSW,5.8,-,N/A,,Clear,250,2013-10-27 12:35:00
7:55 AM,31.1,26.2,82,30.18,10.0,WSW,8.1,-,N/A,,Clear,250,2013-10-27 12:55:00
8:15 AM,31.8,26.4,80,30.18,10.0,SW,4.6,-,N/A,,Clear,230,2013-10-27 13:15:00
8:35 AM,34.0,28.0,79,30.18,10.0,SW,5.8,-,N/A,,Clear,230,2013-10-27 13:35:00
8:55 AM,37.0,29.8,75,30.18,10.0,SW,5.8,-,N/A,,Clear,220,2013-10-27 13:55:00
9:15 AM,40.5,30.9,69,30.18,10.0,WSW,4.6,-,N/A,,Clear,250,2013-10-27 14:15:00
9:35 AM,45.1,32.0,60,30.19,10.0,WSW,5.8,-,N/A,,Clear,240,2013-10-27 14:35:00
9:55 AM,48.7,32.0,52,30.19,10.0,SW,9.2,-,N/A,,Clear,230,2013-10-27 14:55:00
10:15 AM,51.3,32.0,48,30.19,10.0,SW,9.2,-,N/A,,Clear,220,2013-10-27 15:15:00
10:35 AM,54.5,32.2,43,30.19,10.0,WSW,10.4,-,N/A,,Clear,240,2013-10-27 15:35:00
10:55 AM,56.3,32.2,40,30.18,10.0,SW,8.1,-,N/A,,Clear,230,2013-10-27 15:55:00
11:15 AM,60.1,31.8,34,30.17,10.0,SW,11.5,-,N/A,,Clear,230,2013-10-27 16:15:00
11:35 AM,62.8,31.6,31,30.16,10.0,SSW,11.5,-,N/A,,Clear,210,2013-10-27 16:35:00
11:55 AM,63.9,31.3,29,30.15,10.0,SW,13.8,-,N/A,,Clear,230,2013-10-27 16:55:00
12:15 PM,66.0,31.3,27,30.15,10.0,SW,12.7,-,N/A,,Clear,220,2013-10-27 17:15:00
12:35 PM,66.4,31.1,27,30.14,10.0,SW,11.5,19.6,N/A,,Clear,220,2013-10-27 17:35:00
12:55 PM,68.0,31.8,26,30.13,10.0,SSW,15.0,19.6,N/A,,Clear,210,2013-10-27 17:55:00
1:15 PM,68.7,32.0,26,30.11,10.0,SW,12.7,23.0,N/A,,Clear,220,2013-10-27 18:15:00
1:35 PM,69.8,31.5,24,30.10,10.0,SSW,16.1,20.7,N/A,,Clear,210,2013-10-27 18:35:00
1:55 PM,70.5,31.5,24,30.08,10.0,SSW,13.8,20.7,N/A,,Clear,210,2013-10-27 18:55:00
2:15 PM,70.5,31.3,23,30.06,10.0,WSW,16.1,24.2,N/A,,Clear,240,2013-10-27 19:15:00
2:35 PM,70.5,30.6,23,30.05,10.0,SSW,16.1,21.9,N/A,,Clear,210,2013-10-27 19:35:00
2:55 PM,71.2,28.6,20,30.04,10.0,SSW,17.3,23.0,N/A,,Clear,210,2013-10-27 19:55:00
3:15 PM,72.0,28.0,20,30.03,10.0,SW,17.3,25.3,N/A,,Clear,220,2013-10-27 20:15:00
3:35 PM,72.5,28.6,20,30.02,10.0,SSW,16.1,19.6,N/A,,Clear,200,2013-10-27 20:35:00
3:55 PM,72.1,28.2,20,30.01,10.0,SSW,15.0,23.0,N/A,,Clear,210,2013-10-27 20:55:00
4:15 PM,72.9,27.9,19,30.00,10.0,SW,17.3,23.0,N/A,,Clear,230,2013-10-27 21:15:00
4:35 PM,72.9,28.4,19,30.00,10.0,SSW,12.7,21.9,N/A,,Clear,210,2013-10-27 21:35:00
4:55 PM,72.5,28.8,20,29.99,10.0,SSW,15.0,20.7,N/A,,Clear,210,2013-10-27 21:55:00
5:15 PM,72.5,28.9,20,29.99,10.0,SW,18.4,23.0,N/A,,Clear,220,2013-10-27 22:15:00
5:35 PM,72.0,28.4,20,29.98,10.0,SSW,16.1,20.7,N/A,,Clear,210,2013-10-27 22:35:00
5:55 PM,71.6,28.0,20,29.98,10.0,SSW,15.0,19.6,N/A,,Clear,200,2013-10-27 22:55:00
6:15 PM,70.7,28.0,20,29.97,10.0,SSW,12.7,-,N/A,,Clear,210,2013-10-27 23:15:00
6:35 PM,69.6,28.4,22,29.96,10.0,SSW,12.7,-,N/A,,Clear,210,2013-10-27 23:35:00
6:55 PM,65.8,28.9,25,29.96,10.0,SSW,8.1,-,N/A,,Clear,200,2013-10-27 23:55:00
7:15 PM,63.3,28.9,27,29.96,7.0,SSW,6.9,-,N/A,,Clear,200,2013-10-28 00:15:00
7:35 PM,60.1,28.6,30,29.97,7.0,SSW,9.2,-,N/A,,Clear,200,2013-10-28 00:35:00
7:55 PM,58.1,27.5,31,29.97,10.0,South,9.2,-,N/A,,Clear,190,2013-10-28 00:55:00
8:15 PM,56.7,27.5,33,29.97,10.0,South,9.2,-,N/A,,Clear,190,2013-10-28 01:15:00
8:35 PM,56.7,27.5,33,29.96,10.0,SSW,9.2,-,N/A,,Clear,200,2013-10-28 01:35:00
8:55 PM,53.1,27.0,37,29.97,10.0,South,8.1,-,N/A,,Clear,180,2013-10-28 01:55:00
9:15 PM,52.5,27.5,38,29.97,10.0,South,6.9,-,N/A,,Clear,180,2013-10-28 02:15:00
9:35 PM,51.6,27.9,40,29.97,10.0,South,8.1,-,N/A,,Clear,180,2013-10-28 02:35:00
9:55 PM,52.3,28.4,40,29.97,10.0,South,10.4,-,N/A,,Clear,180,2013-10-28 02:55:00
10:15 PM,55.4,29.7,37,29.98,10.0,South,13.8,19.6,N/A,,Clear,190,2013-10-28 03:15:00
10:35 PM,54.5,29.8,39,29.98,10.0,South,12.7,-,N/A,,Clear,190,2013-10-28 03:35:00
10:55 PM,53.2,30.2,41,29.99,10.0,South,9.2,-,N/A,,Clear,190,2013-10-28 03:55:00
11:15 PM,51.1,30.2,45,29.99,10.0,SSW,8.1,-,N/A,,Clear,200,2013-10-28 04:15:00
11:35 PM,50.9,30.2,45,29.99,10.0,SSW,9.2,-,N/A,,Clear,200,2013-10-28 04:35:00
11:55 PM,50.9,30.2,45,29.99,10.0,South,6.9,-,N/A,,Clear,190,2013-10-28 04:55:00